Weather History for KMIV - July, 2013

Change the Weather History Date:

Thursday, July 11, 2013

  Actual Average Record
Temperature  
Mean Temperature 78 °F -  
Max Temperature 84 °F 85 °F 97 °F (1988)
Min Temperature 73 °F 66 °F 54 °F (1953)
Cooling Degree Days 12    
Growing Degree Days 28 (Base 50)    
Moisture  
Dew Point 71 °F    
Average Humidity 84    
Maximum Humidity 94    
Minimum Humidity 60    
Precipitation  
Precipitation 0.31 in - - ()
Sea Level Pressure  
Sea Level Pressure 29.89 in    
Wind  
Wind Speed 6 mph (WSW)    
Max Wind Speed 10 mph    
Max Gust Speed -    
Visibility 7 miles    
Events Rain    
Averages and records for this station are not official NWS values.
T = Trace of Precipitation, MM = Missing Value Source: NWS Daily Summary

Daily Weather History Graph

Daily Weather History Graph

Search for Another Location

Airport or City:

Trip Planner

Search our weather history database for the weather conditions in past years. The results will help you decide how hot, cold, wet, or windy it might be!

Date:

Astronomy

Jul. 11, 2013 Rise Set
Actual Time 5:43 AM EDT 8:28 PM EDT
Civil Twilight 5:11 AM EDT 8:59 PM EDT
Nautical Twilight 4:31 AM EDT 9:39 PM EDT
Astronomical Twilight 3:46 AM EDT 10:24 PM EDT
Moon 8:58 AM EDT (7/11) 10:08 PM EDT (7/11)
Length of Visible Light 15h 48m
Length of Day
14h 44m
Waxing Crescent, 10% of the Moon is Illuminated
Jul 11
Waxing Crescent
Jul 15
First Quarter
Jul 22
Full
Jul 29
Last Quarter
Aug 6
New

Hourly Weather History & Observations

Time (EDT) Temp. Heat Index Dew Point Humidity Pressure Visibility Wind Dir Wind Speed Gust Speed Precip Events Conditions
12:54 AM 77.0 °F - 70.0 °F 79% 29.88 in 10.0 mi WSW 5.8 mph - N/A   Clear
1:54 AM 75.9 °F - 70.0 °F 82% 29.86 in 10.0 mi SW 3.5 mph - N/A   Clear
2:54 AM 77.0 °F - 69.1 °F 76% 29.86 in 10.0 mi Variable 5.8 mph - N/A   Clear
3:54 AM 77.0 °F - 70.0 °F 79% 29.86 in 10.0 mi Variable 5.8 mph - N/A   Clear
4:54 AM 75.9 °F - 70.0 °F 82% 29.85 in 10.0 mi Variable 5.8 mph - N/A   Clear
5:54 AM 75.0 °F - 71.1 °F 87% 29.87 in 10.0 mi WSW 5.8 mph - 0.00 in Rain Light Rain
6:05 AM 75.2 °F - 71.6 °F 89% 29.88 in 10.0 mi SW 3.5 mph - 0.00 in   Mostly Cloudy
6:54 AM 75.9 °F - 71.1 °F 85% 29.88 in 10.0 mi SW 6.9 mph - 0.00 in   Overcast
7:21 AM 75.2 °F - 71.6 °F 89% 29.89 in 10.0 mi WSW 6.9 mph - 0.00 in Rain Light Rain
7:43 AM 75.2 °F - 71.6 °F 89% 29.89 in 10.0 mi WSW 6.9 mph - 0.00 in   Overcast
7:54 AM 75.9 °F - 72.0 °F 87% 29.89 in 5.0 mi WSW 6.9 mph - 0.00 in Rain Light Rain
8:09 AM 75.2 °F - 71.6 °F 89% 29.90 in 2.5 mi West 8.1 mph - 0.03 in Rain Rain
8:11 AM 75.2 °F - 71.6 °F 89% 29.90 in 2.5 mi West 8.1 mph - 0.04 in Rain Rain
8:20 AM 73.4 °F - 71.6 °F 94% 29.90 in 3.0 mi WSW 10.4 mph - 0.06 in Rain Rain
8:27 AM 73.4 °F - 71.6 °F 94% 29.90 in 2.5 mi West 9.2 mph - 0.07 in Rain Rain
8:44 AM 73.4 °F - 69.8 °F 88% 29.90 in 1.0 mi West 6.9 mph - 0.16 in Rain Heavy Rain
8:54 AM 73.0 °F - 70.0 °F 90% 29.90 in 1.2 mi WSW 6.9 mph - 0.21 in Rain Rain
9:04 AM 73.4 °F - 69.8 °F 88% 29.90 in 2.5 mi West 5.8 mph - 0.02 in Rain Rain
9:12 AM 73.4 °F - 69.8 °F 88% 29.90 in 5.0 mi West 6.9 mph - 0.02 in Rain Light Rain
9:35 AM 73.4 °F - 69.8 °F 88% 29.91 in 1.8 mi WSW 6.9 mph - 0.06 in Rain Heavy Rain
9:49 AM 73.4 °F - 71.6 °F 94% 29.91 in 3.0 mi WSW 5.8 mph - 0.09 in Rain Light Rain
9:54 AM 73.0 °F - 71.1 °F 93% 29.91 in 6.0 mi WSW 5.8 mph - 0.09 in Rain Light Rain
10:24 AM 75.2 °F - 71.6 °F 89% 29.91 in 8.0 mi WSW 6.9 mph - 0.01 in Rain Light Rain
10:42 AM 75.2 °F - 71.6 °F 89% 29.90 in 10.0 mi West 6.9 mph - 0.01 in   Mostly Cloudy
10:54 AM 75.9 °F - 72.0 °F 87% 29.89 in 9.0 mi West 5.8 mph - 0.01 in   Mostly Cloudy
11:20 AM 75.2 °F - 71.6 °F 89% 29.90 in 10.0 mi West 6.9 mph - N/A   Mostly Cloudy
11:54 AM 75.9 °F - 72.0 °F 87% 29.91 in 9.0 mi West 4.6 mph - 0.00 in Rain Light Rain
12:54 PM 77.0 °F - 71.1 °F 82% 29.91 in 10.0 mi Variable 5.8 mph - 0.00 in   Mostly Cloudy
1:54 PM 80.1 °F 83.6 °F 71.1 °F 74% 29.89 in 10.0 mi West 5.8 mph - 0.00 in   Mostly Cloudy
2:01 PM 78.8 °F - 71.6 °F 78% 29.89 in 10.0 mi West 5.8 mph - N/A   Scattered Clouds
2:54 PM 80.1 °F 82.7 °F 68.0 °F 67% 29.88 in 10.0 mi WNW 4.6 mph - N/A   Partly Cloudy
3:54 PM 82.0 °F 85.5 °F 69.1 °F 65% 29.87 in 10.0 mi West 5.8 mph - N/A   Scattered Clouds
4:54 PM 82.0 °F 84.9 °F 68.0 °F 62% 29.88 in 10.0 mi SW 3.5 mph - N/A   Scattered Clouds
5:54 PM 82.9 °F 85.8 °F 68.0 °F 60% 29.88 in 10.0 mi Calm Calm - N/A   Clear
6:54 PM 81.0 °F 84.4 °F 70.0 °F 69% 29.89 in 10.0 mi SSW 3.5 mph - N/A   Scattered Clouds
7:54 PM 77.0 °F - 71.1 °F 82% 29.91 in 9.0 mi Calm Calm - N/A   Partly Cloudy
8:54 PM 75.0 °F - 72.0 °F 90% 29.91 in 8.0 mi Calm Calm - N/A   Clear
9:54 PM 75.0 °F - 72.0 °F 90% 29.91 in 8.0 mi Calm Calm - 0.00 in   Clear
10:54 PM 73.9 °F - 72.0 °F 93% 29.91 in 6.0 mi Calm Calm - N/A   Clear
11:54 PM 73.9 °F - 72.0 °F 93% 29.91 in 5.0 mi Calm Calm - N/A   Clear